GW3736 Weather Reports


time (UTC)temp
F
wind
direction
speed
knots
gust
knots
rain 1hr
in
rain 24hr
in
rain mn
in
humidity
%
barometer
mb
20260510080524 45 20 0.9 2.6 0.00 0.06 0.00 69 1008.3
20260510075520 45 24 0.9 1.7 0.00 0.06 0.00 68 1007.9
20260510074535 46 18 0.9 2.6 0.00 0.06 0.00 68 1007.9
20260510073531 46 9 1.7 6.1 0.00 0.06 0.00 68 1007.8
20260510072527 46 29 0.9 5.2 0.00 0.06 0.00 67 1007.7
20260510071523 46 53 2.6 5.2 0.00 0.06 0.00 67 1007.5
20260510070519 47 53 1.7 6.1 0.00 0.06 0.00 67 1007.5
20260510065555 47 34 1.7 5.2 0.00 0.06 0.00 67 1007.4
20260510064531 48 35 1.7 6.1 0.00 0.06 0.00 67 1007.5
20260510063527 48 50 0.9 3.5 0.00 0.06 0.00 66 1007.3
20260510062523 49 59 1.7 7.0 0.00 0.06 0.00 65 1007.3
20260510061519 50 26 1.7 6.1 0.00 0.06 0.00 63 1007.0
20260510060535 51 26 1.7 7.0 0.00 0.06 0.00 61 1006.8
20260510055531 51 4 0.0 2.6 0.00 0.06 0.00 58 1006.7
20260510054527 52 331 0.0 0.9 0.00 0.06 0.00 58 1006.3
20260510053523 52 342 0.0 0.9 0.00 0.06 0.00 58 1006.3
20260510052519 52 3 0.0 2.6 0.00 0.06 0.00 57 1006.0
20260510051535 53 305 0.0 1.7 0.00 0.06 0.00 56 1006.0
20260510050550 53 351 0.0 1.7 0.00 0.06 0.00 56 1005.7
20260510045527 53 1 0.9 2.6 0.00 0.06 0.00 56 1005.6
20260510044603 53 335 0.9 2.6 0.00 0.06 0.00 55 1005.4
20260510043518 54 349 0.9 2.6 0.00 0.06 0.00 55 1005.4
20260510042534 54 331 0.9 3.5 0.00 0.06 0.00 55 1005.2
20260510041530 54 316 0.9 2.6 0.00 0.06 0.00 55 1005.0
20260510040546 55 298 0.9 2.6 0.00 0.06 0.00 54 1004.9
20260510035522 55 342 1.7 5.2 0.00 0.06 0.06 55 1005.0
20260510034518 55 13 1.7 6.1 0.00 0.06 0.06 55 1004.7
20260510033534 56 356 1.7 5.2 0.00 0.06 0.06 55 1004.5
20260510032530 56 334 2.6 7.8 0.00 0.06 0.06 54 1004.3
20260510031526 57 337 1.7 6.1 0.00 0.06 0.06 55 1004.1
20260510030521 57 337 2.6 6.1 0.00 0.06 0.06 56 1004.0
20260510025518 58 352 2.6 7.0 0.00 0.06 0.06 56 1003.9
20260510024554 59 342 1.7 7.8 0.00 0.06 0.06 54 1003.6
20260510023529 59 352 2.6 6.1 0.00 0.06 0.06 51 1003.3
20260510022525 60 353 1.7 7.0 0.00 0.06 0.06 50 1002.8
20260510021521 60 330 2.6 8.7 0.00 0.06 0.06 51 1002.4
20260510020517 60 329 0.0 1.7 0.00 0.06 0.06 51 1002.0
20260510015533 61 340 0.0 0.9 0.00 0.06 0.06 50 1001.8
20260510014609 61 0.0 0.0 0.00 0.06 0.06 49 1001.5
20260510013525 61 340 0.0 1.7 0.00 0.06 0.06 49 1001.2
20260510012521 62 333 0.0 1.7 0.00 0.06 0.06 48 1001.0
20260510011516 63 327 0.9 3.5 0.00 0.06 0.06 46 1000.9
20260510010532 63 327 1.7 3.5 0.00 0.06 0.06 46 1000.7
20260510005528 63 337 1.7 5.2 0.00 0.06 0.06 45 1000.6
20260510004524 64 329 1.7 3.5 0.00 0.06 0.06 44 1000.2
20260510003520 65 325 2.6 8.7 0.00 0.06 0.06 43 1000.3
20260510002536 65 318 4.3 9.6 0.00 0.06 0.06 41 1000.1
20260510001532 66 309 4.3 8.7 0.00 0.06 0.06 40 1000.0
20260510000527 66 297 6.1 14.8 0.00 0.06 0.06 39 999.9
20260509235523 67 291 7.0 14.8 0.00 0.06 0.06 38 999.9
20260509234519 67 300 6.1 13.9 0.00 0.06 0.06 37 999.8
20260509233536 67 296 7.8 15.6 0.00 0.06 0.06 36 999.7
20260509232531 68 299 9.6 21.7 0.00 0.06 0.06 36 999.5
20260509231527 68 294 7.0 14.8 0.00 0.06 0.06 36 999.4
20260509230523 69 289 10.4 21.7 0.00 0.06 0.06 35 999.2
20260509225519 69 281 7.8 18.2 0.00 0.06 0.06 36 999.0
20260509224515 69 296 10.4 21.7 0.00 0.06 0.06 38 998.7
20260509223531 68 279 7.8 13.9 0.00 0.06 0.06 37 998.6
20260509222527 69 278 7.0 18.2 0.00 0.06 0.06 38 998.4
20260509221523 69 277 11.3 19.1 0.00 0.06 0.06 37 998.4
20260509220519 69 274 11.3 20.0 0.00 0.06 0.06 37 998.1
20260509215536 69 299 10.4 20.9 0.00 0.06 0.06 36 997.9
20260509214530 69 287 10.4 20.0 0.00 0.06 0.06 38 997.7
20260509213526 69 289 7.8 15.6 0.00 0.06 0.06 40 997.6
20260509212521 69 284 9.6 14.8 0.00 0.06 0.06 40 997.7
20260509211518 68 292 7.0 13.0 0.00 0.06 0.06 47 997.8
20260509210554 68 296 7.0 18.2 0.00 0.06 0.06 53 997.8
20260509205550 67 296 7.0 15.6 0.00 0.06 0.06 53 998.1
20260509204526 66 302 4.3 9.6 0.00 0.06 0.06 60 998.1
20260509203522 65 299 3.5 8.7 0.00 0.06 0.06 64 998.4
20260509202518 64 300 3.5 7.0 0.02 0.06 0.06 70 998.5
20260509201534 62 311 2.6 5.2 0.05 0.06 0.06 72 998.5
20260509200530 61 298 3.5 7.0 0.05 0.06 0.06 74 998.6
20260509195526 59 294 3.5 7.0 0.06 0.06 0.06 74 998.8
20260509194522 58 305 2.6 3.5 0.06 0.06 0.06 74 998.6
20260509193518 57 296 3.5 9.6 0.05 0.05 0.05 71 999.1
20260509192534 60 311 5.2 11.3 0.04 0.04 0.04 64 999.3
20260509191530 65 310 10.4 18.2 0.01 0.01 0.01 56 998.6
20260509190526 65 260 7.0 14.8 0.00 0.00 0.00 60 997.9
20260509185522 65 289 3.5 9.6 0.00 0.00 0.00 59 997.7
20260509184518 65 265 3.5 7.8 0.00 0.00 0.00 62 997.9
20260509183534 66 265 5.2 12.2 0.00 0.00 0.00 62 997.9
20260509182530 65 243 4.3 12.2 0.00 0.00 0.00 63 997.7
20260509181526 66 177 6.1 12.2 0.00 0.00 0.00 62 997.8
20260509180543 66 175 7.0 18.2 0.00 0.00 0.00 62 998.1
20260509175518 66 195 6.1 18.2 0.00 0.00 0.00 63 998.1
20260509174534 66 214 6.1 12.2 0.00 0.00 0.00 63 998.0
20260509173530 66 143 6.1 13.0 0.00 0.00 0.00 64 998.2
20260509172526 66 169 7.0 15.6 0.00 0.00 0.00 65 998.4
20260509171522 64 153 7.0 15.6 0.00 0.00 0.00 68 998.4
20260509170518 64 140 5.2 13.0 0.00 0.00 0.00 68 998.5
20260509165534 64 158 5.2 12.2 0.00 0.00 0.00 67 998.6
20260509164610 63 157 6.1 13.0 0.00 0.00 0.00 66 998.7
20260509163526 64 122 5.2 14.8 0.00 0.00 0.00 64 998.7
20260509162522 65 155 7.8 15.6 0.00 0.00 0.00 66 998.7
20260509161518 64 146 7.0 14.8 0.00 0.00 0.00 67 998.8
20260509160534 64 132 7.8 18.2 0.00 0.00 0.00 67 999.2
20260509155531 65 177 6.1 13.0 0.00 0.00 0.00 65 999.3
20260509154526 65 184 6.1 14.8 0.00 0.00 0.00 67 999.3
20260509153522 64 128 5.2 9.6 0.00 0.00 0.00 68 999.3
20260509152518 63 156 4.3 9.6 0.00 0.00 0.00 71 999.4
20260509151535 61 126 5.2 9.6 0.00 0.00 0.00 71 999.6
20260509150531 61 131 6.1 11.3 0.00 0.00 0.00 70 999.5
20260509145526 62 164 4.3 8.7 0.00 0.00 0.00 71 1000.0
20260509144542 62 119 6.1 12.2 0.00 0.00 0.00 72 999.7
20260509143518 62 231 4.3 11.3 0.00 0.00 0.00 74 1000.2
20260509142535 61 238 4.3 8.7 0.00 0.00 0.00 75 1000.0
20260509141531 60 120 5.2 12.2 0.00 0.00 0.00 76 1000.3
20260509140527 59 96 4.3 9.6 0.00 0.00 0.00 77 1000.5
20260509135523 60 0 2.6 7.8 0.00 0.00 0.00 78 1000.6
20260509134518 59 29 3.5 8.7 0.00 0.00 0.00 81 1000.6
20260509133534 58 50 3.5 8.7 0.00 0.00 0.00 81 1000.7
20260509132530 57 283 4.3 7.8 0.00 0.00 0.00 82 1000.9
20260509131526 56 354 3.5 7.0 0.00 0.00 0.00 83 1000.8
20260509130543 55 285 4.3 8.7 0.00 0.00 0.00 83 1000.8
20260509125519 54 317 2.6 6.1 0.00 0.00 0.00 83 1000.6
20260509124535 54 290 1.7 3.5 0.00 0.00 0.00 83 1000.7
20260509123551 54 215 4.3 9.6 0.00 0.00 0.00 84 1000.7
20260509122527 54 278 2.6 7.0 0.00 0.00 0.00 84 1000.8
20260509121523 53 283 3.5 7.8 0.00 0.00 0.00 84 1001.1
20260509120519 52 325 2.6 6.1 0.00 0.00 0.00 84 1001.2
20260509115534 52 300 2.6 6.1 0.00 0.00 0.00 84 1001.5
20260509114531 52 273 3.5 8.7 0.00 0.00 0.00 83 1001.4
20260509113527 52 259 2.6 7.8 0.00 0.00 0.00 83 1001.2
20260509112523 51 337 0.9 2.6 0.00 0.00 0.00 83 1001.3
20260509111518 51 312 1.7 3.5 0.00 0.00 0.00 83 1001.4
20260509110534 50 332 1.7 3.5 0.00 0.00 0.00 82 1001.3
20260509105530 50 327 0.9 2.6 0.00 0.00 0.00 82 1001.2
20260509104526 50 330 0.9 1.7 0.00 0.00 0.00 82 1001.2
20260509103522 50 339 0.9 1.7 0.00 0.00 0.00 82 1001.1
20260509102518 50 355 0.0 0.9 0.00 0.00 0.00 81 1001.0
20260509101534 50 346 0.0 3.5 0.00 0.00 0.00 81 1001.1
20260509100530 50 344 0.9 1.7 0.00 0.00 0.00 81 1001.1
20260509095526 50 323 0.9 2.6 0.00 0.00 0.00 80 1001.2
20260509094522 50 332 0.9 2.6 0.00 0.00 0.00 80 1001.1
20260509093518 50 327 0.9 2.6 0.00 0.00 0.00 80 1001.2
20260509092534 50 326 1.7 6.1 0.00 0.00 0.00 80 1001.1
20260509091531 50 334 0.9 1.7 0.00 0.00 0.00 79 1001.2
20260509090527 50 355 0.9 2.6 0.00 0.00 0.00 79 1001.3
20260509085522 50 328 1.7 3.5 0.00 0.00 0.00 79 1001.4
20260509084518 51 337 0.9 2.6 0.00 0.00 0.00 79 1001.6
20260509083554 51 329 0.9 2.6 0.00 0.00 0.00 79 1001.6
20260509082530 51 330 0.0 1.7 0.00 0.00 0.00 79 1001.6
20260509081526 51 333 0.9 2.6 0.00 0.00 0.00 79 1001.5